• In Slovakia
  • List of Countries
  • For 7 days
  • Water Temperature
  • Satellite Maps
  • Weather Map
  • Weather Widgets
  • user-avatar
    Login

    Hourly Weather Comayagua

    Today, 20 October, Saturday

    Time Temperature Precipitation Wind Pressure Humidity
    00:00 +23°C° 0.1 mm 1 mps 708 mmHg 94%
    01:00 +23°C° 0.1 mm 1 mps 707 mmHg 94%
    02:00 +23°C° 0.1 mm 1 mps 707 mmHg 95%
    03:00 +23°C° 0.1 mm 1 mps 707 mmHg 95%
    04:00 +23°C° 0.1 mm 1 mps 707 mmHg 95%
    05:00 +23°C° 0.1 mm 1 mps 707 mmHg 95%
    06:00 +22°C° 0.1 mm 1 mps 708 mmHg 96%
    07:00 +24°C° 0.2 mm 1 mps 708 mmHg 88%
    08:00 +26°C° 0.2 mm 1 mps 709 mmHg 81%
    09:00 +28°C° 0.2 mm 1 mps 709 mmHg 74%
    10:00 +29°C° 0.5 mm 1 mps 709 mmHg 70%
    11:00 +30°C° 0.5 mm 1 mps 708 mmHg 66%
    12:00 +31°C° 0.5 mm 1 mps 708 mmHg 62%
    13:00 +31°C° 0.6 mm 1 mps 707 mmHg 62%
    14:00 +31°C° 0.6 mm 1 mps 707 mmHg 62%
    15:00 +31°C° 0.6 mm 1 mps 706 mmHg 62%
    16:00 +29°C° 0.6 mm 1 mps 706 mmHg 70%
    17:00 +27°C° 0.6 mm 1 mps 706 mmHg 78%
    18:00 +25°C° 0.6 mm 1 mps 707 mmHg 86%
    19:00 +25°C° 0.9 mm 1 mps 707 mmHg 89%
    20:00 +24°C° 0.9 mm 1 mps 708 mmHg 93%
    21:00 +24°C° 0.9 mm 1 mps 708 mmHg 96%
    22:00 +24°C° 0.6 mm 1 mps 708 mmHg 96%
    23:00 +23°C° 0.6 mm 1 mps 708 mmHg 97%

    Tomorrow, 21 October, Sunday

    Time Temperature Precipitation Wind Pressure Humidity
    00:00 +23°C° 0.6 mm 1 mps 708 mmHg 97%
    01:00 +23°C° 0.1 mm 1 mps 708 mmHg 97%
    02:00 +23°C° 0.1 mm 1 mps 707 mmHg 97%
    03:00 +23°C° 0.1 mm 1 mps 707 mmHg 97%
    04:00 +23°C° 0 mm 1 mps 707 mmHg 97%
    05:00 +23°C° 0 mm 1 mps 708 mmHg 97%
    06:00 +23°C° 0 mm 1 mps 708 mmHg 97%
    07:00 +24°C° 0 mm 1 mps 708 mmHg 92%
    08:00 +25°C° 0 mm 1 mps 709 mmHg 86%
    09:00 +27°C° 0 mm 1 mps 709 mmHg 81%
    10:00 +28°C° 0.2 mm 2 mps 709 mmHg 73%
    11:00 +30°C° 0.2 mm 2 mps 709 mmHg 64%
    12:00 +31°C° 0.2 mm 2 mps 708 mmHg 56%
    13:00 +31°C° 0.1 mm 2 mps 708 mmHg 56%
    14:00 +31°C° 0.1 mm 2 mps 707 mmHg 55%
    15:00 +31°C° 0.1 mm 2 mps 707 mmHg 55%
    16:00 +29°C° 0.1 mm 2 mps 707 mmHg 64%
    17:00 +27°C° 0.1 mm 1 mps 707 mmHg 74%
    18:00 +24°C° 0.1 mm 1 mps 707 mmHg 83%
    19:00 +24°C° 0.1 mm 1 mps 707 mmHg 86%
    20:00 +23°C° 0.1 mm 1 mps 708 mmHg 89%
    21:00 +23°C° 0.1 mm 1 mps 709 mmHg 91%
    22:00 +22°C° 0 mm 1 mps 709 mmHg 93%
    23:00 +22°C° 0 mm 1 mps 708 mmHg 94%

    Day after tomorrow, 22 October, Monday

    Time Temperature Precipitation Wind Pressure Humidity
    00:00 +22°C° 0 mm 1 mps 708 mmHg 95%
    01:00 +22°C° 0 mm 1 mps 708 mmHg 96%
    02:00 +22°C° 0 mm 1 mps 708 mmHg 96%
    03:00 +22°C° 0 mm 1 mps 707 mmHg 97%
    04:00 +22°C° 0 mm 1 mps 708 mmHg 97%
    05:00 +22°C° 0 mm 1 mps 708 mmHg 97%
    06:00 +22°C° 0 mm 1 mps 708 mmHg 97%
    07:00 +24°C° 0 mm 1 mps 709 mmHg 89%
    08:00 +25°C° 0 mm 1 mps 709 mmHg 81%
    09:00 +27°C° 0 mm 2 mps 710 mmHg 73%
    10:00 +29°C° 0 mm 2 mps 710 mmHg 64%
    11:00 +30°C° 0 mm 2 mps 709 mmHg 54%
    12:00 +32°C° 0 mm 2 mps 709 mmHg 44%
    13:00 +32°C° 0 mm 2 mps 708 mmHg 44%
    14:00 +32°C° 0 mm 2 mps 708 mmHg 44%
    15:00 +32°C° 0 mm 2 mps 707 mmHg 44%
    16:00 +30°C° 0 mm 2 mps 707 mmHg 55%
    17:00 +27°C° 0 mm 1 mps 707 mmHg 65%
    18:00 +25°C° 0 mm 1 mps 707 mmHg 76%
    19:00 +24°C° 0 mm 1 mps 708 mmHg 81%
    20:00 +23°C° 0 mm 1 mps 708 mmHg 87%
    21:00 +23°C° 0 mm 1 mps 709 mmHg 92%
    22:00 +23°C° 0.1 mm 1 mps 709 mmHg 93%
    23:00 +23°C° 0.1 mm 1 mps 709 mmHg 95%

    23 October, Tuesday

    Time Temperature Precipitation Wind Pressure Humidity
    00:00 +23°C° 0.1 mm 1 mps 709 mmHg 96%
    01:00 +22°C° 0 mm 1 mps 708 mmHg 96%
    02:00 +22°C° 0 mm 1 mps 708 mmHg 96%
    03:00 +22°C° 0 mm 1 mps 708 mmHg 97%
    04:00 +22°C° 0 mm 1 mps 708 mmHg 96%
    05:00 +22°C° 0 mm 1 mps 708 mmHg 96%
    06:00 +22°C° 0 mm 1 mps 709 mmHg 96%
    07:00 +24°C° 0 mm 1 mps 709 mmHg 90%
    08:00 +25°C° 0 mm 2 mps 710 mmHg 83%
    09:00 +27°C° 0 mm 2 mps 710 mmHg 76%
    10:00 +28°C° 0 mm 2 mps 710 mmHg 68%
    11:00 +30°C° 0 mm 2 mps 709 mmHg 60%
    12:00 +31°C° 0 mm 2 mps 709 mmHg 51%
    13:00 +32°C° 0 mm 2 mps 708 mmHg 50%
    14:00 +32°C° 0 mm 2 mps 708 mmHg 50%
    15:00 +32°C° 0 mm 2 mps 707 mmHg 49%
    16:00 +29°C° 0 mm 2 mps 707 mmHg 59%
    17:00 +27°C° 0 mm 1 mps 707 mmHg 69%
    18:00 +25°C° 0 mm 1 mps 708 mmHg 79%
    19:00 +24°C° 0 mm 1 mps 708 mmHg 83%
    20:00 +24°C° 0 mm 1 mps 709 mmHg 87%
    21:00 +23°C° 0 mm 1 mps 709 mmHg 92%
    22:00 +23°C° 0.1 mm 1 mps 709 mmHg 93%
    23:00 +23°C° 0.1 mm 1 mps 709 mmHg 94%

    24 October, Wednesday

    Time Temperature Precipitation Wind Pressure Humidity
    00:00 +23°C° 0.1 mm 1 mps 709 mmHg 96%
    01:00 +23°C° 0 mm 1 mps 708 mmHg 96%
    02:00 +23°C° 0 mm 1 mps 708 mmHg 96%
    03:00 +23°C° 0 mm 1 mps 708 mmHg 96%
    04:00 +23°C° 0 mm 1 mps 708 mmHg 96%
    05:00 +23°C° 0 mm 1 mps 709 mmHg 97%
    06:00 +23°C° 0 mm 1 mps 709 mmHg 97%
    07:00 +24°C° 0 mm 1 mps 709 mmHg 90%
    08:00 +26°C° 0 mm 1 mps 710 mmHg 83%
    09:00 +27°C° 0 mm 2 mps 710 mmHg 77%
    10:00 +29°C° 0 mm 2 mps 710 mmHg 68%
    11:00 +30°C° 0 mm 2 mps 709 mmHg 60%
    12:00 +32°C° 0 mm 2 mps 709 mmHg 51%
    13:00 +32°C° 0.1 mm 2 mps 708 mmHg 53%
    14:00 +31°C° 0.1 mm 2 mps 708 mmHg 55%
    15:00 +31°C° 0.1 mm 2 mps 707 mmHg 56%
    16:00 +29°C° 0.1 mm 1 mps 707 mmHg 66%
    17:00 +27°C° 0.1 mm 1 mps 707 mmHg 75%
    18:00 +25°C° 0.1 mm 1 mps 707 mmHg 84%
    19:00 +24°C° 0 mm 1 mps 708 mmHg 88%
    20:00 +23°C° 0 mm 1 mps 708 mmHg 91%
    21:00 +23°C° 0 mm 1 mps 709 mmHg 95%
    22:00 +23°C° 0 mm 1 mps 709 mmHg 95%
    23:00 +23°C° 0 mm 1 mps 708 mmHg 96%

    25 October, Thursday

    Time Temperature Precipitation Wind Pressure Humidity
    00:00 +23°C° 0 mm 1 mps 708 mmHg 96%
    01:00 +23°C° 0 mm 1 mps 708 mmHg 97%
    02:00 +23°C° 0 mm 1 mps 708 mmHg 97%
    03:00 +23°C° 0 mm 1 mps 708 mmHg 97%
    04:00 +23°C° 0 mm 1 mps 708 mmHg 97%
    05:00 +22°C° 0 mm 1 mps 708 mmHg 97%
    06:00 +22°C° 0 mm 1 mps 709 mmHg 97%
    07:00 +24°C° 0 mm 1 mps 709 mmHg 90%
    08:00 +26°C° 0 mm 1 mps 710 mmHg 83%
    09:00 +27°C° 0 mm 1 mps 710 mmHg 75%
    10:00 +29°C° 0 mm 1 mps 709 mmHg 67%
    11:00 +30°C° 0 mm 2 mps 709 mmHg 59%
    12:00 +32°C° 0 mm 2 mps 708 mmHg 50%
    13:00 +32°C° 0 mm 2 mps 708 mmHg 51%
    14:00 +32°C° 0 mm 1 mps 707 mmHg 51%
    15:00 +32°C° 0 mm 1 mps 706 mmHg 51%
    16:00 +29°C° 0.1 mm 1 mps 706 mmHg 60%
    17:00 +27°C° 0.1 mm 1 mps 706 mmHg 68%
    18:00 +25°C° 0.1 mm 1 mps 707 mmHg 77%
    19:00 +22°C° 0 mm 0 mps 707 mmHg 81%
    20:00 +22°C° 0 mm 0 mps 707 mmHg 85%
    21:00 +21°C° 0 mm 0 mps 708 mmHg 90%
    22:00 +20°C° 0 mm 0 mps 707 mmHg 91%
    23:00 +20°C° 0 mm 0 mps 707 mmHg 92%
    Show more